Location: downtown San Diego
(32.7310°N, 117.1990°W)
Time: 13:35:43
(UTC-08:00)

Cosmos 1726 Rocket - Pass Details

Date: 14 June 2018
Orbit: 602 x 630 km, 82.5° (Epoch: 18 November)

Event Time Altitude Azimuth Distance (km) Brightness Sun altitude
Rises 20:49:10 0° 352° (N) 2,925 7.7 -9.9°
Reaches altitude 10° 20:51:24 10° 352° (N) 2,014 6.9 -10.3°
Maximum altitude 20:55:53 83° 266° (W) 638 3.7 -11.0°
Drops below altitude 10° 21:00:19 10° 178° (S) 1,994 5.8 -11.8°
Enters shadow 21:01:17 - 177° (S) 2,391 6.2 -11.9°
